Regional Weather Roundup
Issued by NWS

Home | Current Version | Previous Version | Text Only | Print | Product List | Glossary On
Versions: 1 2 3 4 5 6 7 8 9 10 11 12 13 14 15 16 17 18 19 20 21 22 23 24 25 26 27
000
ASUS45 KTFX 231710
RWRMT
MONTANA REGIONAL WEATHER ROUNDUP
NATIONAL WEATHER SERVICE GREAT FALLS MT
1100 AM MDT SAT SEP 23 2017

NOTE: "FAIR" INDICATES FEW OR NO CLOUDS BELOW 12000 FEET WITH NO
SIGNIFICANT WEATHER AND/OR OBSTRUCTIONS TO VISIBILITY.

MTZ001>007-043-231800-
WEST OF THE DIVIDE

CITY           SKY/WX    TMP DP  RH WIND       PRES   REMARKS
KALISPELL      PTSUNNY   49  38  65 SE8       30.09R
MISSOULA       CLOUDY    43  36  76 CALM      30.13S
BUTTE          CLOUDY    39  32  76 N3        30.09R
MULLAN PASS    CLOUDY    34  30  85 CALM      30.07R
ANACONDA         N/A     41  30  65 N5        30.08F
DEER LODGE       N/A     41  30  65 CALM      30.12S
EUREKA           N/A     46  36  66 CALM      30.09R
HAMILTON         N/A     45  36  70 N3        30.11S
LIBBY            N/A     45  39  81 CALM      30.08R
PLAINS           N/A     50  36  58 CALM      30.10R
$$

MTZ008-052>055-231800-
SOUTHWEST MONTANA

CITY           SKY/WX    TMP DP  RH WIND       PRES   REMARKS
BOZEMAN        CLOUDY    41  35  79 CALM      30.10S
DILLON         CLOUDY    40  32  73 CALM      30.07S
W YELLOWSTONE  CLOUDY    39  28  65 MISG      30.04S
ENNIS          CLOUDY    37  34  87 CALM      30.12S
THREE FORKS      N/A     43  37  79 CALM      30.08S
TWIN BRIDGES     N/A     41  31  68 CALM      30.06S
$$

MTZ009-010-012-014-046-048-049-054-231800-
EAST SLOPES AND CENTRAL MONTANA

CITY           SKY/WX    TMP DP  RH WIND       PRES   REMARKS
CUT BANK       PTSUNNY   41  36  82 SE6       30.06S
GREAT FALLS    SUNNY     42  36  79 S7        30.09R
MALMSTROM AFB  SUNNY     43  36  76 SW9       30.10R
HELENA         CLOUDY    41  34  76 CALM      30.10S
BOWMANS CRNR     N/A     40  35  84 S14       30.05S
CHOTEAU          N/A     37  37 100 SE6       30.09S
FAIRFIELD      PTSUNNY   39  37  94 S8        30.07S
POWER          PTSUNNY   40  35  84 S7        30.08R
RAYNESFORD       N/A     43  37  79 SE6       30.09S
ULM            PTSUNNY   42  36  78 SE6       30.09S
$$

MTZ011-013-016-021-045-047-050-051-231800-
NORTH CENTRAL MONTANA

CITY           SKY/WX    TMP DP  RH WIND       PRES   REMARKS
HAVRE          CLOUDY    47  37  68 VRB3      30.12S
LEWISTOWN      CLOUDY    40  37  89 E5        30.09S
N BAR RANCH    CLOUDY    39  36  87 VRB5      30.12F
CHINOOK          N/A     46  41  81 E10       30.12F
DENTON           N/A     42  39  89 SE9       30.07S
GEYSER         PTSUNNY   41  38  87 N3        30.09S
JUDITH GAP     CLOUDY    37  35  93 S13       30.09R WCI  29
WINIFRED       PTSUNNY   42  39  91 SE10      30.09S
$$

MTZ017>020-022>027-061-062-231800-
NORTHEAST MONTANA

CITY           SKY/WX    TMP DP  RH WIND       PRES   REMARKS
GLASGOW        CLOUDY    48  38  68 SE6       30.14F
JORDAN           N/A     46  39  76 VRB3      30.13R
SIDNEY         CLOUDY    49  41  74 E5        30.16R
WOLF POINT     CLOUDY    47  40  76 SW3       30.16S
MALTA          CLOUDY    46  41  81 CALM      30.14F
PLENTYWOOD       N/A     48  39  71 CALM      30.14F
POPLAR           N/A     48  37  66 CALM      30.16R
SCOBEY           N/A     47  39  73 CALM      30.11F
$$

MTZ028>42-056>058-231800-
SOUTHCENTRAL AND SOUTHEAST MONTANA

CITY           SKY/WX    TMP DP  RH WIND       PRES   REMARKS
BAKER          LGT RAIN  43  42  97 E3        30.14S
BILLINGS       LGT RAIN  41  39  93 N6        30.10S
LIVINGSTON     CLOUDY    39  33  79 CALM      30.10R
MILES CITY     LGT RAIN  44  38  79 NE7       30.15R
BIG TIMBER     CLOUDY    37  36  93 CALM      30.13S
EKALAKA          N/A     42  38  86 E3        30.08S
HARLOWTON      CLOUDY    38  36  90 MISG      30.10S
LAUREL           N/A     41  39  93 NE5       30.12R
ROUNDUP          N/A     41  37  85 NE1       30.02R
$$

REGIONAL REPORTS...DAKOTAS

CITY           SKY/WX    TMP DP  RH WIND       PRES   REMARKS
WILLISTON      CLOUDY    49  42  77 NE6       30.16S
MINOT          CLOUDY    53  44  71 NW10      30.13R
DICKINSON      CLOUDY    46  43  89 NE6       30.13R
BEACH          DRIZZLE   45  39  81 E5        30.18S
CROSBY         CLOUDY    48  39  71 N5        30.17R
TIOGA          CLOUDY    48  45  87 N8        30.16F
WATFORD CITY   CLOUDY    48  41  76 NE5       30.14R
BISMARCK       CLOUDY    51  47  86 N7        30.13R
GRAND FORKS    CLOUDY    57  50  77 N14       30.05R
FARGO          CLOUDY    55  50  83 N10       30.04R
BUFFALO SD       N/A     45  41  86 NE12      30.04F
RAPID CITY     CLOUDY    46  43  87 N16       30.05F
$$

REGIONAL REPORTS...WYOMING/IDAHO/WASHINGTON

CITY           SKY/WX    TMP DP  RH WIND       PRES   REMARKS
GILLETTE       CLOUDY    42  40  92 NE5       30.05F
SHERIDAN       CLOUDY    43  41  93 NE7       30.08R
BUFFALO WY     LGT RAIN  40  37  89 E6        30.08R FOG
CODY           CLOUDY    37  36  96 NE7       30.09S WCI  32
IDAHO FALLS    CLOUDY    41  36  82 CALM      30.06S
SALMON         CLOUDY    44  32  62 N6        30.09S
BOISE          MOSUNNY   48  40  73 W3        30.08R
SPOKANE        MOSUNNY   51  42  71 S7        30.09R
$$

REGIONAL REPORTS...ALBERTA

CITY           SKY/WX    TMP DP  RH WIND       PRES   REMARKS
EDMONTON       SUNNY     46  39  76 S9        30.06S
CALGARY        PTSUNNY   43  34  70 S12       30.05S
LETHBRIDGE     PTSUNNY   45  36  70 SE7G20    30.06R
MEDICINE HAT   LGT RAIN  45  39  81 E3        30.10S
$$

REGIONAL REPORTS...SASKATCHEWAN

CITY           SKY/WX    TMP DP  RH WIND       PRES   REMARKS
SWIFT CURRENT    N/A     45  34  65 SW10      30.11S
REGINA         CLOUDY    46  37  71 W3        30.16R
SASKATOON      CLOUDY    46  41  81 CALM      30.14S
$$




USA.gov is the U.S. government's official web portal to all federal, state and local government web resources and services.